TimeEDT,TemperatureF,Dew PointF,Humidity,Sea Level PressureIn,VisibilityMPH,Wind Direction,Wind SpeedMPH,Gust SpeedMPH,PrecipitationIn,Events,Conditions,WindDirDegrees,DateUTC
12:15 AM,60.8,59.0,94,30.03,2.5,Calm,Calm,-,N/A,,Clear,0,2012-10-06 04:15:00
12:35 AM,59.0,59.0,100,30.03,1.5,Calm,Calm,-,N/A,,Mist,0,2012-10-06 04:35:00
12:55 AM,60.8,59.0,94,30.03,5.0,Calm,Calm,-,N/A,,Clear,0,2012-10-06 04:55:00
1:15 AM,59.0,59.0,100,30.03,3.0,Calm,Calm,-,N/A,,Clear,0,2012-10-06 05:15:00
1:35 AM,59.0,57.2,94,30.02,7.0,Calm,Calm,-,N/A,,Clear,0,2012-10-06 05:35:00
1:55 AM,59.0,59.0,100,30.02,4.0,Calm,Calm,-,N/A,,Clear,0,2012-10-06 05:55:00
2:15 AM,57.2,55.4,94,30.02,5.0,Calm,Calm,-,N/A,,Clear,0,2012-10-06 06:15:00
2:35 AM,59.0,59.0,100,30.01,2.0,Calm,Calm,-,N/A,,Mist,0,2012-10-06 06:35:00
2:55 AM,55.4,55.4,100,30.01,5.0,Calm,Calm,-,N/A,,Clear,0,2012-10-06 06:55:00
3:15 AM,57.2,55.4,94,30.00,1.8,Calm,Calm,-,N/A,,Mist,0,2012-10-06 07:15:00
3:35 AM,55.4,55.4,100,29.99,5.0,Calm,Calm,-,N/A,,Clear,0,2012-10-06 07:35:00
3:55 AM,59.0,57.2,94,29.99,4.0,Calm,Calm,-,N/A,,Clear,0,2012-10-06 07:55:00
4:15 AM,57.2,55.4,94,29.99,3.0,Calm,Calm,-,N/A,,Clear,0,2012-10-06 08:15:00
4:35 AM,57.2,55.4,94,29.99,4.0,Calm,Calm,-,N/A,,Clear,0,2012-10-06 08:35:00
4:55 AM,57.2,55.4,94,29.99,3.0,Calm,Calm,-,N/A,,Clear,0,2012-10-06 08:55:00
5:15 AM,55.4,55.4,100,29.99,4.0,Calm,Calm,-,N/A,,Clear,0,2012-10-06 09:15:00
5:35 AM,55.4,55.4,100,29.99,2.5,Calm,Calm,-,N/A,,Clear,0,2012-10-06 09:35:00
5:55 AM,55.4,55.4,100,29.99,4.0,Calm,Calm,-,N/A,,Clear,0,2012-10-06 09:55:00
6:15 AM,55.4,55.4,100,29.99,5.0,Calm,Calm,-,N/A,,Clear,0,2012-10-06 10:15:00
6:35 AM,55.4,55.4,100,29.99,7.0,Calm,Calm,-,N/A,,Clear,0,2012-10-06 10:35:00
6:55 AM,57.2,55.4,94,29.99,5.0,Calm,Calm,-,N/A,,Clear,0,2012-10-06 10:55:00
6:56 AM,57.2,57.2,100,29.99,5.0,Calm,Calm,-,N/A,,Clear,0,2012-10-06 10:56:00
7:56 AM,59.0,59.0,100,29.99,5.0,Calm,Calm,-,N/A,,Clear,0,2012-10-06 11:56:00
8:56 AM,68.0,64.4,88,30.00,7.0,West,6.9,-,N/A,,Clear,270,2012-10-06 12:56:00
9:56 AM,71.6,66.2,83,30.00,7.0,SW,4.6,-,N/A,,Scattered Clouds,230,2012-10-06 13:56:00
10:56 AM,77.0,66.2,69,29.99,10.0,WSW,5.8,-,N/A,,Clear,250,2012-10-06 14:56:00
11:56 AM,80.6,64.4,58,29.96,10.0,WSW,8.1,-,N/A,,Scattered Clouds,240,2012-10-06 15:56:00
12:56 PM,82.4,62.6,51,29.94,10.0,SSW,11.5,-,N/A,,Scattered Clouds,210,2012-10-06 16:56:00
1:56 PM,84.2,59.0,42,29.91,10.0,WSW,9.2,-,N/A,,Scattered Clouds,240,2012-10-06 17:56:00
2:56 PM,84.2,59.0,42,29.90,10.0,SW,6.9,-,N/A,,Partly Cloudy,220,2012-10-06 18:56:00
3:56 PM,84.2,57.2,40,29.89,10.0,SW,8.1,-,N/A,,Clear,220,2012-10-06 19:56:00
4:56 PM,82.4,59.0,45,29.89,10.0,Calm,Calm,-,N/A,,Scattered Clouds,0,2012-10-06 20:56:00
5:56 PM,80.6,62.6,54,29.90,10.0,Calm,Calm,-,N/A,,Scattered Clouds,0,2012-10-06 21:56:00
6:56 PM,73.4,66.2,78,29.92,10.0,Calm,Calm,-,N/A,,Clear,0,2012-10-06 22:56:00
7:56 PM,69.8,64.4,83,29.93,10.0,Calm,Calm,-,N/A,,Clear,0,2012-10-06 23:56:00
8:56 PM,68.0,66.2,94,29.94,10.0,Calm,Calm,-,N/A,,Clear,0,2012-10-07 00:56:00
9:15 PM,68.0,64.4,88,29.95,10.0,South,3.5,-,N/A,,Clear,180,2012-10-07 01:15:00
9:35 PM,68.0,64.4,88,29.95,10.0,Calm,Calm,-,N/A,,Clear,0,2012-10-07 01:35:00
9:55 PM,68.0,64.4,88,29.96,10.0,Calm,Calm,-,N/A,,Clear,0,2012-10-07 01:55:00
9:56 PM,68.0,66.2,94,29.96,10.0,Calm,Calm,-,N/A,,Clear,0,2012-10-07 01:56:00
10:15 PM,68.0,64.4,88,29.96,10.0,Calm,Calm,-,N/A,,Clear,0,2012-10-07 02:15:00
10:35 PM,68.0,64.4,88,29.96,10.0,Calm,Calm,-,N/A,,Clear,0,2012-10-07 02:35:00
10:55 PM,69.8,66.2,88,29.96,10.0,SSW,4.6,-,N/A,,Clear,200,2012-10-07 02:55:00
11:15 PM,69.8,66.2,88,29.96,10.0,South,3.5,-,N/A,,Clear,190,2012-10-07 03:15:00
11:35 PM,68.0,64.4,88,29.96,10.0,SSW,3.5,-,N/A,,Clear,210,2012-10-07 03:35:00
11:55 PM,68.0,64.4,88,29.96,10.0,SW,4.6,-,N/A,,Scattered Clouds,220,2012-10-07 03:55:00